Погода в Муканае

Россия / Республика Марий Эл     56°26′34″N   49°30′13″E
темп.,
°C
ветер,
м/с
пор.,
м/с
влажн.,
%
обл.,
%
осадки,
мм/ч
давл.,
гПа
погр.,
м
14 июня, пн
пн1400:00+15ююв3796100 0.1 1013150
03:00+14ю3796100 0.1 1014134
06:00+17ю3690100 0.0 1015208
09:00+22ююз356833 0.0 1015751
12:00+25ююз4656100 0.0 10151369
15:00+25юз3552100 0.0 10141631
18:00+23юз2570100 0.2 1014283
21:00+17зюз228713 0.3 101513
15 июня, вт
вт1500:00+16з119333 0.0 101411
03:00+15з119325 0.0 101511
06:00+19зюз11775 0.0 1015139
09:00+24ююз22567 0.1 1015866
12:00+26ю4349100 0.0 10141798
15:00+25ю3354100 0.1 10141287
18:00+20ю2386100 0.8 101389
21:00+19ю248974 0.8 101391
16 июня, ср
ср1600:00+16ю229528 0.0 101237
03:00+16юв1191100 0.0 101211
06:00+20в257577 0.0 1011192
09:00+25вюв475993 0.0 1008594
12:00+28ююв57485 0.0 10071215
15:00+27ююз56545 0.0 10061476
18:00+22зюз61180100 3.3 1005411
21:00+17сз389646 6.6 1007288
17 июня, чт
чт1700:00+15ссз5139515 0.0 1010586
03:00+12сз512940 0.0 1012442
06:00+14ссз411825 0.0 1014494
09:00+18ссз69520 0.0 10151444
12:00+20ссз574113 0.0 10162332
15:00+19ссз375077 0.0 1017947
18:00+18ссз475614 0.0 10181021
21:00+14ссз277011 0.0 1019183
18 июня, пт
пт1800:00+11ссз25795 0.0 102198
03:00+9ссз310875 0.0 1022213
06:00+13ссз4106912 0.0 1024494
09:00+18ссз58485 0.0 10241309
12:00+20ссз684120 0.0 10241859
15:00+20ссз57405 0.0 10241787
18:00+19ссз365362 0.0 1025854
21:00+14зсз2270100 0.0 102510